CGMPW CYHZ-CYHZ

Flight info

Callsign CGMPW
Flight time 0h 6m
Altitude 1200
Route VFR FLIGHT IN THE HALIFAX REGION /
Aircraft AS50/L-VGD/A

Departure

Time 2026-04-28 02:01
Airport Halifax / Stanfield International Airport (CYHZ)

Arrival

Time 2026-04-28 02:08
Airport Halifax / Stanfield International Airport (CYHZ)
Time Latitude Longitude Altitude Speed Heading
2026-04-28 02:00 44.88001 -63.51829 452 ft 0 kts
2026-04-28 02:00 44.88012 -63.51826 490 ft 8 kts
2026-04-28 02:00 44.88045 -63.51842 661 ft 6 kts 323°
2026-04-28 02:01 44.88085 -63.51884 729 ft 4 kts 330°
2026-04-28 02:01 44.88109 -63.51887 911 ft 8 kts 335°
2026-04-28 02:01 44.88189 -63.51981 926 ft 24 kts 332°
2026-04-28 02:01 44.88505 -63.52226 1106 ft 89 kts 340°
2026-04-28 02:02 44.89258 -63.52570 898 ft 134 kts 354°
2026-04-28 02:02 44.89340 -63.51863 725 ft 116 kts 140°
2026-04-28 02:02 44.88802 -63.50969 609 ft 123 kts 126°
2026-04-28 02:02 44.88337 -63.49914 518 ft 126 kts 126°
2026-04-28 02:03 44.87888 -63.48892 617 ft 122 kts 122°
2026-04-28 02:03 44.87256 -63.48221 921 ft 111 kts 164°
2026-04-28 02:03 44.86504 -63.48631 1111 ft 122 kts 205°
2026-04-28 02:03 44.85734 -63.49183 1131 ft 130 kts 202°
2026-04-28 02:04 44.85034 -63.48938 1580 ft 108 kts 131°
2026-04-28 02:04 44.85250 -63.48008 1820 ft 130 kts 34°
2026-04-28 02:04 44.86213 -63.48175 1614 ft 156 kts 333°
2026-04-28 02:04 44.87075 -63.49173 1149 ft 169 kts 322°
2026-04-28 02:05 44.87955 -63.50269 637 ft 168 kts 318°
2026-04-28 02:05 44.88725 -63.51273 648 ft 139 kts 318°
2026-04-28 02:05 44.89481 -63.51803 864 ft 120 kts 35°
2026-04-28 02:05 44.89188 -63.50790 678 ft 131 kts 155°
2026-04-28 02:06 44.88383 -63.51359 544 ft 140 kts 213°
2026-04-28 02:06 44.87590 -63.52123 531 ft 136 kts 211°
2026-04-28 02:06 44.86819 -63.52871 543 ft 134 kts 218°
2026-04-28 02:06 44.86309 -63.53965 600 ft 136 kts 237°
2026-04-28 02:07 44.85535 -63.54565 684 ft 129 kts 184°
2026-04-28 02:07 44.85008 -63.53766 654 ft 138 kts 86°
2026-04-28 02:07 44.85623 -63.52764 730 ft 138 kts 43°
2026-04-28 02:07 44.86414 -63.52005 821 ft 135 kts 33°
2026-04-28 02:08 44.87214 -63.51528 924 ft 111 kts 16°
2026-04-28 02:08 44.87891 -63.51553 648 ft 76 kts 356°
2026-04-28 02:08 44.88024 -63.51651 528 ft 10 kts 342°
2026-04-28 02:08 44.88096 -63.51685 466 ft 3 kts 341°
2026-04-28 02:09 44.88122 -63.51713 452 ft 0 kts 340°